This is the latest recevied weather packets stored in our database for station/object KC9Q. If no packets are shown the sender has not sent any weather packets the latest 10 day(s).
| Time | Temp. | Humidity | Pressure | Rain* | Wind** | Luminosity | Snow |
|---|---|---|---|---|---|---|---|
| 1778088057 | 13.33° C | 70% | 1015.5 hPa | 0 mm | - | 336 W/m² | - |
| 1778087755 | 13.33° C | 72% | 1015.4 hPa | 0 mm | - | 537 W/m² | - |
| 1778087453 | 12.78° C | 75% | 1015.3 hPa | 0 mm | - | 413 W/m² | - |
| 1778087150 | 12.78° C | 72% | 1015.4 hPa | 0 mm | - | 683 W/m² | - |
| 1778086847 | 12.78° C | 73% | 1015 hPa | 0 mm | - | 396 W/m² | - |
| 1778086546 | 12.78° C | 73% | 1015 hPa | 0 mm | - | 387 W/m² | - |
| 1778086242 | 12.78° C | 74% | 1014.9 hPa | 0 mm | - | 339 W/m² | - |
| 1778085939 | 12.78° C | 74% | 1014.8 hPa | 0 mm | - | 286 W/m² | - |
| 1778085636 | 12.78° C | 76% | 1014.8 hPa | 0 mm | - | 340 W/m² | - |
| 1778085332 | 12.78° C | 75% | 1014.7 hPa | 0 mm | - | 341 W/m² | - |
| 1778085028 | 12.78° C | 74% | 1014.8 hPa | 0 mm | - | 416 W/m² | - |
| 1778084724 | 12.78° C | 75% | 1014.9 hPa | 0 mm | - | 426 W/m² | - |
| 1778084422 | 12.22° C | 77% | 1014.8 hPa | 0 mm | - | 845 W/m² | - |
| 1778084119 | 12.78° C | 74% | 1014.8 hPa | 0 mm | - | 586 W/m² | - |
| 1778083816 | 12.22° C | 76% | 1014.7 hPa | 0 mm | - | 1041 W/m² | - |
| 1778083513 | 12.22° C | 73% | 1014.6 hPa | 0 mm | - | 505 W/m² | - |
| 1778083210 | 12.22° C | 76% | 1015 hPa | 0 mm | - | 469 W/m² | - |
| 1778082908 | 12.22° C | 76% | 1014.8 hPa | 0 mm | - | 469 W/m² | - |
| 1778081794 | 11.67° C | 75% | 1015.1 hPa | 0 mm | - | 363 W/m² | - |
| 1778081492 | 11.67° C | 75% | 1014.9 hPa | 0 mm | - | 306 W/m² | - |
| 1778081189 | 11.67° C | 74% | 1014.9 hPa | 0 mm | - | 265 W/m² | - |
| 1778080886 | 11.67° C | 78% | 1015 hPa | 0 mm | - | 363 W/m² | - |
| 1778080585 | 11.67° C | 75% | 1014.8 hPa | 0 mm | - | 398 W/m² | - |
| 1778080281 | 11.67° C | 79% | 1014.5 hPa | 0 mm | - | 402 W/m² | - |
| 1778079978 | 11.67° C | 76% | 1014.8 hPa | 0 mm | - | 355 W/m² | - |
* Rain latest hour (hover to see other rain measurements)
** Current wind speed in m/s (hover to see current wind gust speed)